Regional Weather Roundup
Issued by NWS

Home | Current Version | Previous Version | Graphics & Text | Print | Product List | Glossary On
Versions: 1 2 3 4 5 6 7 8 9 10 11 12 13 14 15 16 17 18 19 20 21 22 23 24 25 26 27 28
000
ASUS45 KSLC 270110
RWRUT

UTAH REGIONAL WEATHER ROUNDUP
NATIONAL WEATHER SERVICE SALT LAKE CITY UT
700 PM MDT FRI AUG 26 2016

UTZ001>011-023>025-270200-

NORTHERN UTAH

CITY           SKY/WX    TMP DP  RH WIND       PRES   REMARKS
BRIGHAM CITY     N/A     78  19  10 S7        29.97S
HILL AFB       MOSUNNY   76  27  16 W7        30.00F
LOGAN          PTSUNNY   80  23  12 S7        29.96F
OGDEN          MOSUNNY   77  26  15 SW6       29.97F
PROVO AIRPORT  MOSUNNY   81  37  21 NW16      29.97S
SALT LAKE CITY MOSUNNY   83  21  10 NW13      29.96F
VERNAL         CLOUDY    69  44  40 E5        30.07R
WENDOVER       PTSUNNY   81  27  13 SW5       29.97S
HEBER CITY     MOSUNNY   73  37  27 NW8       30.03S
WEST JORDAN    SUNNY     79  29  16 NW10      30.00S

$$

UTZ012>022-026-027-270200-

SOUTHERN/CENTRAL UTAH

CITY           SKY/WX    TMP DP  RH WIND       PRES   REMARKS
BLANDING       MOCLDY    72  44  36 S5        30.21S
BRYCE CANYON   LGT RAIN  53  45  74 VRB6      30.27R
CEDAR CITY     PTSUNNY   74  42  31 S15G24    30.08F
MILFORD        CLOUDY    69  50  50 S6        30.03F
MOAB/CYNLANDS  CLOUDY    78  38  23 W25       30.02R
PRICE          CLOUDY    66  46  48 SE12      30.11S
ST GEORGE      PTCLDY    84  52  32 SE12      29.93F

$$

REGIONAL REPORTS     COLORADO/ARIZONA

CITY           SKY/WX    TMP DP  RH WIND       PRES   REMARKS
CRAIG, CO      LGT RAIN  57  46  66 W16G22    30.21R
GRAND JUNCTION CLOUDY    77  47  34 SE5       30.04S
RIFLE          CLOUDY    75  32  20 W13       30.08R
MONTROSE       CLOUDY    73  42  32 N5        30.13S
CORTEZ         CLOUDY    72  46  39 W8        30.15F
PAGE, AZ       CLOUDY    80  43  26 S12       30.04R
GRAND CANYON   RAIN      59  48  67 SW18G26   30.25R
KINGMAN        PTSUNNY   85  49  28 SE13      29.99R
FLAGSTAFF      CLOUDY    55  52  89 NW7       30.28S

$$

REGIONAL REPORTS    NEVADA/IDAHO/WYOMING

CITY           SKY/WX    TMP DP  RH WIND       PRES   REMARKS
LAS VEGAS, NV  PTSUNNY   94  41  16 N8        29.81F HX  90
ELY            PTSUNNY   77  18  11 W14       30.06S
ELKO           MOSUNNY   82  14   8 W12G22    30.02S
POCATELLO, ID  CLOUDY    75  28  17 SW16      30.00S
BURLEY         MOSUNNY   74  39  28 W10       29.97F
EVANSTON, WY   CLOUDY    69  19  15 W17G25    30.13F
ROCK SPRINGS   CLOUDY    63  34  33 S13       30.11F

$$




USA.gov is the U.S. government's official web portal to all federal, state and local government web resources and services.